[[{"header":{"parameterUnit":"m.s-1","parameterCategory":1,"la1":30.2991,"la2":30.254,"lo1":-89.0895,"lo2":-89.0444,"dy":0.0017,"dx":0.0017,"nx":28,"ny":28,"refTime":"2023-07-30T09:00:00:Z","depth":0,"parameterNumber":2,"parameterNumberName":"U-component_of_WINDS"},"data":[0,0,0,0,0,0,0,0,0,0,0,0,0,0,0,0,0,0,0,0,0,0,0,0,0,0,0,0,0,0,0,0,0,0,0,0,0,0,0,0,0,0,0,0,0,0,0,0,0,0,0,0,0,0,0,0,0,0,-1.2442,-1.2431,0,-1.1449,-1.1437,-1.1426,-1.0919,-1.0919,-1.0919,-1.0918,-0.9837,-0.9809,-0.9781,0,0,0,0,0,0,0,0,0,0,0,0,0,-1.3839,-1.3816,-1.2443,-1.2431,-1.2418,-1.1451,-1.1437,-1.1423,-1.0919,-1.0919,-1.0919,-1.0918,-0.9846,-0.9812,-0.9778,0,0,0,0,0,0,0,0,0,0,0,0,0,-1.3077,-1.3809,-1.2445,-1.2052,-1.2007,-1.1453,-1.1436,-1.1419,-1.0919,-1.0919,-1.0919,-1.0918,-0.9857,-0.9816,-0.9773,-0.9516,0,0,-0.9642,-0.9624,0,0,0,0,0,0,0,0,-1.3121,-1.3026,-1.2122,-1.2078,-1.2027,-1.1309,-1.1532,-1.0779,-1.0919,-1.133,-1.0918,-1.0918,-1.0322,-1.0241,-1.0054,-0.9465,-0.9419,-0.9639,-0.9613,-0.9594,-0.9582,0,0,0,0,0,0,0,-1.3174,-1.3065,-1.2047,-1.2109,-1.2051,-1.1903,-1.1795,-1.1387,-1.0838,-1.1294,-1.1256,-1.1148,-1.0296,-1.0096,-1.0024,-0.9403,-0.964,-0.9602,-0.9575,-0.9558,-0.8541,-0.854,0,0,0,0,0,0,-1.3299,-1.3113,-1.2079,-1.2017,-1.2586,-1.1879,-1.1757,-1.1538,-1.0842,-1.0737,-1.115,-1.1128,-1.017,-1.0075,-0.9984,-0.9632,-0.9594,-0.9554,-0.953,-0.8542,-0.8541,-0.8539,0,0,0,0,0,0,-1.3332,-1.3212,-1.2119,-1.2554,-1.2405,-1.1856,-1.1613,-1.1519,-1.132,-1.0734,-1.0626,-1.1051,-1.0166,-1.0045,-0.9638,-0.9587,-0.9535,-0.9496,-0.8544,-0.8542,-0.854,-0.893,0,0,0,0,0,0,-1.3374,-1.3227,-1.3139,-1.2558,-1.2384,-1.1811,-1.1611,-1.15,-1.1255,-1.1218,-1.0612,-1.0511,-1.0156,-0.9706,-0.9596,-0.9527,-0.9462,-0.8545,-0.8543,-0.8541,-0.8919,-0.8942,-0.8962,0,0,0,0,0,-1.3426,-1.3275,-1.3138,-1.3015,-1.2266,-1.1809,-1.1707,-1.1321,-1.1254,-1.1149,-1.0771,-1.053,-0.9614,-0.9668,-0.954,-0.9458,-0.8547,-0.8544,-0.8541,-0.891,-0.8938,-0.8961,0,0,0,0,0,0,-1.3841,-1.3192,-1.3031,-1.2693,-1.2314,-1.1726,-1.1583,-1.1363,-1.0976,-1.0955,-1.0471,-1.0338,-0.9974,-0.9673,-0.9747,-0.9167,-0.9054,-0.9026,-0.9378,-0.9399,-0.9421,-0.9497,-0.9427,0,0,0,0,0,-1.3899,-1.3605,-1.3043,-1.2796,-1.2617,-1.2136,-1.1921,-1.1659,-1.1235,-1.1065,-1.0657,-1.0239,-0.9854,-0.961,-0.9224,-0.8875,-0.8726,-0.8753,-0.8775,-0.8795,-0.8773,-0.8556,-0.8558,-0.853,-0.853,-0.853,0,0,-1.4003,-1.3612,-1.3451,-1.2871,-1.2546,-1.2231,-1.2002,-1.1678,-1.1433,-1.1007,-1.0606,-1.0292,-0.9789,-0.9412,-0.9222,-0.9148,-0.875,-0.8791,-0.8812,-0.8777,-0.8553,-0.8557,-0.856,-0.8528,-0.8528,-0.8528,0,0,-1.4035,-1.3717,-1.3477,-1.316,-1.2678,-1.2359,-1.2303,-1.1747,-1.1529,-1.1123,-1.0796,-1.0485,-0.9838,-0.9493,-0.9233,-0.9138,-0.8896,-0.9023,-0.913,-0.8924,-0.8926,-0.8926,-0.8883,-0.8875,-0.9005,-0.9006,-0.9006,0,-1.422,-1.3757,-1.3374,-1.3074,-1.2821,-1.2445,-1.2186,-1.1888,-1.1296,-1.1121,-1.1053,-1.0233,-0.9867,-0.9399,-0.9379,-0.9182,-0.9086,-0.9088,-0.8962,-0.8957,-0.8949,-0.8903,-0.8889,-0.9024,-0.9022,-0.902,-0.9018,0,-1.4004,-1.3686,-1.3546,-1.3011,-1.2741,-1.2462,-1.2018,-1.1787,-1.1547,-1.123,-1.0811,-1.0363,-0.9879,-0.9748,-0.9501,-0.924,-0.921,-0.9059,-0.8933,-0.8978,-0.8925,-0.8905,-0.905,-0.9044,-0.9038,-0.9034,0,0,-1.4263,-1.353,-1.3484,-1.3235,-1.2677,-1.2411,-1.2107,-1.1657,-1.1464,-1.1065,-1.0788,-1.025,-1.0108,-0.9813,-0.9522,-0.9344,-0.9288,-0.921,-0.919,-0.9235,-0.896,-0.9076,-0.9063,-0.9128,-0.9123,-0.9119,-0.9,0,-1.4212,-1.368,-1.3326,-1.2921,-1.2615,-1.2253,-1.1985,-1.1603,-1.1298,-1.0974,-1.0624,-1.0251,-1.0096,-0.9915,-0.9722,-0.9338,-0.9224,-0.9341,-0.8844,-0.8832,-0.898,-0.9036,-0.9156,-0.9067,-0.8978,-0.8974,-0.8971,0,-1.408,-1.372,-1.3295,-1.2771,-1.2627,-1.2399,-1.1953,-1.1657,-1.1208,-1.0995,-1.0674,-1.0381,-1.0023,-0.9937,-0.9427,-0.9516,-0.9289,-0.9069,-0.9055,-0.8987,-0.8902,-0.8963,-0.9029,-0.9015,-0.8937,-0.8939,-0.8942,0,-1.4307,-1.3711,-1.3379,-1.3176,-1.2559,-1.2405,-1.2135,-1.1689,-1.144,-1.1042,-1.0872,-1.0432,-1.0187,-0.9843,-0.9432,-0.9408,-0.896,-0.884,-0.8758,-0.8769,-0.8674,-0.8685,-0.87,-0.8543,-0.8543,-0.8543,-0.8543,0,-1.4283,-1.4033,-1.3474,-1.3268,-1.2972,-1.256,-1.227,-1.1966,-1.1574,-1.1286,-1.0937,-1.067,-1.0149,-0.981,-0.9483,-0.9107,-0.8998,-0.8802,-0.8717,-0.8831,-0.8856,-0.8671,-0.8664,-0.8539,-0.854,-0.8541,-0.8541,0,-1.4483,-1.4101,-1.3714,-1.3168,-1.3024,-1.2829,-1.2348,-1.2123,-1.1804,-1.1443,-1.1333,-1.082,-1.0405,-0.9966,-0.9392,-0.9172,-0.8806,-0.869,-0.8967,-0.8917,-0.8859,-0.8868,-0.8749,-0.8707,-0.859,-0.8592,-0.8594,0,-1.4492,-1.4295,-1.3735,-1.3531,-1.3279,-1.2949,-1.2699,-1.2279,-1.2028,-1.1505,-1.1338,-1.0903,-1.0532,-0.9881,-0.9441,-0.8999,-0.8865,-0.8854,-0.8794,-0.8914,-0.8855,-0.8871,-0.8843,-0.8872,-0.8875,-0.8878,-0.8881,0,-1.4543,-1.4366,-1.4033,-1.3633,-1.3351,-1.3007,-1.2647,-1.2493,-1.1997,-1.1729,-1.1315,-1.103,-1.0456,-1.002,-0.9528,-0.9221,-0.8961,-0.8906,-0.8861,-0.8971,-0.9138,-0.904,-0.9014,-0.8907,-0.8904,-0.8902,-0.8901,-0.89,-1.4639,-1.4449,-1.4029,-1.3665,-1.3357,-1.3032,-1.2796,-1.2454,-1.2109,-1.1627,-1.1392,-1.0975,-1.0516,-0.9833,-0.9535,-0.9185,-0.9107,-0.9046,-0.9028,-0.9018,-0.9045,-0.9204,-0.9093,-0.9091,-0.909,-0.9089,-0.9088,0,-1.4668,-1.4385,-1.4057,-1.358,-1.329,-1.31,-1.2691,-1.2454,-1.21,-1.1709,-1.1358,-1.0874,-1.045,-0.9984,-0.9527,-0.9336,-0.9204,-0.9228,-0.9233,-0.9165,-0.9143,-0.9226,-0.9343,-0.9343,-0.9343,-0.9343,-0.9343,-0.9343,-1.465,-1.4317,-1.409,-1.3591,-1.3297,-1.2908,-1.269,-1.238,-1.2067,-1.1553,-1.121,-1.0917,-1.0487,-0.9997,-0.9593,-0.9464,-0.9306,-0.9366,-0.9201,-0.9187,-0.9167,-0.9148,-0.9222,-0.9337,-0.9337,-0.9249,-0.9249,-0.9248]},{"header":{"parameterUnit":"m.s-1","parameterCategory":1,"la1":30.2991,"la2":30.254,"lo1":-89.0895,"lo2":-89.0444,"dy":0.0017,"dx":0.0017,"nx":28,"ny":28,"refTime":"2023-07-30T09:00:00:Z","depth":0,"parameterNumber":3,"parameterNumberName":"V-component_of_WINDS"},"data":[0,0,0,0,0,0,0,0,0,0,0,0,0,0,0,0,0,0,0,0,0,0,0,0,0,0,0,0,0,0,0,0,0,0,0,0,0,0,0,0,0,0,0,0,0,0,0,0,0,0,0,0,0,0,0,0,0,0,1.6927,1.6928,0,1.7041,1.7042,1.7043,1.7283,1.7288,1.7292,1.7297,1.7406,1.7404,1.7403,0,0,0,0,0,0,0,0,0,0,0,0,0,1.6904,1.6903,1.6927,1.6929,1.693,1.7041,1.7042,1.7044,1.7282,1.7288,1.7294,1.7299,1.7406,1.7404,1.7402,0,0,0,0,0,0,0,0,0,0,0,0,0,1.6955,1.6903,1.6927,1.7062,1.7076,1.704,1.7042,1.7044,1.7281,1.7288,1.7295,1.7302,1.7407,1.7405,1.7402,1.7242,0,0,1.7395,1.7394,0,0,0,0,0,0,0,0,1.6952,1.6956,1.7041,1.7053,1.7068,1.7155,1.7074,1.711,1.7279,1.7203,1.7297,1.7306,1.7316,1.7321,1.7327,1.7247,1.7252,1.7395,1.7393,1.7392,1.7391,0,0,0,0,0,0,0,1.6948,1.6952,1.6972,1.7042,1.7058,1.7113,1.7129,1.7082,1.7217,1.721,1.7228,1.7238,1.7325,1.7328,1.7331,1.7253,1.7395,1.7392,1.7391,1.739,1.7038,1.703,0,0,0,0,0,0,1.6926,1.6948,1.6968,1.6975,1.7027,1.7108,1.7125,1.712,1.7218,1.724,1.7232,1.7249,1.7329,1.7333,1.7336,1.7148,1.7392,1.739,1.7388,1.7045,1.7036,1.7027,0,0,0,0,0,0,1.6925,1.6926,1.6964,1.6966,1.6975,1.7101,1.7093,1.7118,1.7122,1.7235,1.7259,1.7211,1.7335,1.7339,1.7262,1.7156,1.7389,1.7386,1.7055,1.7042,1.7032,1.6775,0,0,0,0,0,0,1.6923,1.6924,1.6868,1.6963,1.6974,1.6891,1.7086,1.7115,1.7118,1.7142,1.7222,1.7242,1.7341,1.7264,1.7259,1.7156,1.7385,1.7065,1.7049,1.7035,1.6794,1.6756,1.6724,0,0,0,0,0,1.6922,1.6792,1.6864,1.6865,1.6907,1.6885,1.6891,1.7009,1.7109,1.7051,1.7121,1.724,1.7168,1.7254,1.7251,1.7145,1.7072,1.7054,1.7036,1.6809,1.6763,1.6725,0,0,0,0,0,0,1.6681,1.6807,1.6889,1.6787,1.6823,1.6925,1.6856,1.6958,1.6965,1.6986,1.713,1.7146,1.7047,1.709,1.7183,1.6991,1.7138,1.7119,1.6967,1.6924,1.689,1.688,1.7383,0,0,0,0,0,1.6615,1.659,1.6701,1.66,1.6614,1.673,1.6725,1.6812,1.6855,1.6871,1.6937,1.6971,1.6956,1.6943,1.6936,1.6801,1.6818,1.6726,1.6691,1.6662,1.6643,1.6566,1.6525,1.6969,1.6969,1.6969,0,0,1.6481,1.6547,1.6522,1.6552,1.6591,1.6556,1.6742,1.67,1.6673,1.6865,1.6795,1.6842,1.689,1.678,1.6736,1.6813,1.6523,1.6639,1.6615,1.6612,1.6543,1.6501,1.6464,1.6957,1.6959,1.6961,0,0,1.6217,1.6267,1.6185,1.6218,1.6274,1.6351,1.633,1.6416,1.6455,1.6387,1.6527,1.6496,1.6469,1.6494,1.6503,1.6238,1.6345,1.6232,1.6049,1.5972,1.5937,1.5907,1.5806,1.5769,1.6213,1.6212,1.6212,0,1.6043,1.6,1.6129,1.6075,1.6081,1.6251,1.6165,1.619,1.6239,1.6237,1.6323,1.6286,1.6331,1.6226,1.616,1.6164,1.614,1.6223,1.5932,1.5903,1.5877,1.5782,1.5744,1.6198,1.6199,1.6201,1.6202,0,1.5778,1.5744,1.567,1.5712,1.571,1.564,1.5753,1.5734,1.5819,1.5885,1.5808,1.5867,1.587,1.5853,1.5936,1.5756,1.5801,1.5907,1.6058,1.5817,1.5731,1.5696,1.6177,1.6182,1.6186,1.619,0,0,1.5371,1.5479,1.5449,1.5467,1.5536,1.5511,1.5444,1.5448,1.5426,1.5452,1.5395,1.5364,1.546,1.547,1.5557,1.549,1.5268,1.5604,1.5607,1.5535,1.5065,1.4982,1.4938,1.5339,1.5333,1.5328,1.5059,0,1.512,1.5016,1.5126,1.4997,1.4963,1.512,1.5061,1.5094,1.5151,1.5128,1.5191,1.5164,1.5297,1.5302,1.5244,1.5307,1.5174,1.5329,1.5283,1.528,1.5263,1.4895,1.4809,1.4553,1.5027,1.5021,1.5017,0,1.4816,1.4825,1.4691,1.4761,1.4751,1.4697,1.4704,1.4681,1.4718,1.4764,1.477,1.4874,1.4808,1.4955,1.4862,1.4964,1.4951,1.4978,1.4971,1.4969,1.5132,1.4878,1.4475,1.4434,1.4966,1.497,1.4974,0,1.4524,1.4503,1.4419,1.443,1.4511,1.4467,1.4498,1.4543,1.4535,1.454,1.4535,1.4532,1.4529,1.4522,1.4619,1.4719,1.451,1.4669,1.4542,1.4539,1.4491,1.4492,1.4075,1.4487,1.4488,1.4488,1.4489,0,1.4232,1.4143,1.4288,1.4236,1.4138,1.4262,1.416,1.4207,1.4243,1.4199,1.4334,1.4289,1.4422,1.4388,1.4464,1.437,1.4369,1.4401,1.4421,1.4387,1.4382,1.4379,1.4398,1.4478,1.4481,1.4483,1.4484,0,1.3892,1.3986,1.3903,1.3984,1.4001,1.3925,1.3992,1.3944,1.4008,1.3949,1.3942,1.4041,1.4008,1.4104,1.4087,1.4137,1.4,1.4051,1.3987,1.4001,1.3868,1.3877,1.3432,1.3377,1.3826,1.3822,1.3818,0,1.3698,1.3633,1.3704,1.3684,1.3707,1.3674,1.3665,1.3781,1.3766,1.3797,1.3743,1.3721,1.371,1.3647,1.3716,1.37,1.375,1.3595,1.3749,1.3713,1.3742,1.3743,1.3734,1.3562,1.3557,1.3552,1.3549,0,1.3342,1.339,1.3374,1.3369,1.3355,1.3358,1.337,1.3344,1.3468,1.3442,1.341,1.34,1.3379,1.3352,1.335,1.3379,1.348,1.3499,1.3468,1.3432,1.3395,1.3408,1.3896,1.3509,1.3513,1.3516,1.3518,1.352,1.3068,1.3013,1.3052,1.3026,1.3046,1.3052,1.3008,1.3064,1.3039,1.3031,1.31,1.305,1.308,1.3088,1.3104,1.3064,1.3135,1.3091,1.308,1.3067,1.3042,1.3402,1.3064,1.3066,1.3067,1.3068,1.3069,0,1.2715,1.2746,1.2721,1.2731,1.2707,1.2806,1.2821,1.2795,1.2749,1.2769,1.2753,1.271,1.2682,1.2745,1.2727,1.2681,1.2727,1.2672,1.2675,1.2678,1.2982,1.3009,1.2634,1.2634,1.2634,1.2635,1.2635,1.2635,1.2529,1.244,1.249,1.2409,1.244,1.2393,1.2392,1.2394,1.241,1.2356,1.2333,1.2374,1.2409,1.2392,1.2368,1.2387,1.2372,1.2299,1.2333,1.2616,1.2658,1.2698,1.2724,1.2296,1.2295,1.2033,1.203,1.2029]}]]